Flag for U.S.A. Weather past 2 weeks in St. Croix Falls, Wisconsin, U.S.A.

Now
80 °F

Sunny.


Feels Like: 81 °F
Forecast: 61 / 79 °F
Wind: 3 mph from Southeast

Location: L O Simenstad Municipal Airport

Current Time: Aug 1, 2015 at 7:39:51 PM

Latest Report: Aug 1, 2015 at 7:15 PM


Visibility: 10 mi

Pressure: 29.82 "Hg

Humidity: 53%

Dew point: 61 °F

Location of St. Croix FallsLocation

Historic Weather in St. Croix Falls — Graph

°F

St. Croix Falls temperature yesterday

Maximum temperature yesterday: 79 °F (at 2:55 PM)
Minimum temperature yesterday: 60 °F (at 11:55 PM)
Average temperature yesterday: 71 °F

Past Weeks' High & Low Weather Summary

 TemperatureHumidityPressure
High86 °F (Jul 26, 3:15 PM)100% (Jul 17, 10:15 PM)30.08 "Hg (Jul 17, 10:15 PM)
Low53 °F (Jul 21, 5:55 AM)31% (Jul 31, 5:55 PM)29.66 "Hg (Jul 18, 1:15 AM)
Average73 °F72%29.94 "Hg
* Reported Jul 17 6:15 PM — Aug 1 6:15 PM, St. Croix Falls, Weather by CustomWeather, © 2015

Note: Actual official high and low records may vary slightly from our data, if they occured in-between our weather recording intervals... More about our weather records

Advertising

St. Croix Falls weather history for previous 24 hours

 ConditionsComfort  
Time TempWeatherWind HumidityBarometerVisibility
6:15 PM
Sat, Aug 1
82 °FSunny.3 mph39%29.85 "Hg10 mi
5:55 PM82 °FSunny.5 mph39%29.86 "Hg10 mi
5:35 PM80 °FSunny.3 mph48%29.87 "Hg10 mi
5:15 PM82 °FSunny.7 mph42%29.88 "Hg10 mi
4:15 PM82 °FPartly sunny.9 mph40%29.91 "Hg10 mi
3:55 PM81 °FPartly sunny.6 mph41%29.92 "Hg10 mi
3:35 PM82 °FScattered clouds.6 mph37%29.92 "Hg10 mi
3:15 PM82 °FSunny.9 mph35%29.93 "Hg10 mi
2:55 PM82 °FSunny.5 mph37%29.93 "Hg10 mi
2:15 PM82 °FSunny.7 mph38%29.95 "Hg10 mi
1:55 PM81 °FSunny.6 mph38%29.95 "Hg10 mi
1:35 PM80 °FSunny.No wind39%29.96 "Hg10 mi
1:15 PM80 °FSunny.7 mph42%29.97 "Hg10 mi
12:55 PM80 °FSunny.7 mph41%29.97 "Hg10 mi
12:15 PM79 °FSunny.9 mph47%29.98 "Hg10 mi
11:55 AM79 °FSunny.8 mph45%29.99 "Hg10 mi
11:35 AM78 °FSunny.6 mph42%29.99 "Hg10 mi
11:15 AM78 °FSunny.6 mph45%29.99 "Hg10 mi
10:55 AM77 °FSunny.3 mph50%29.99 "Hg10 mi
10:15 AM76 °FScattered clouds.6 mph48%29.99 "Hg10 mi
9:55 AM74 °FScattered clouds.No wind61%29.99 "Hg10 mi
9:15 AM71 °FSunny.No wind70%29.99 "Hg10 mi
8:55 AM69 °FSunny.No wind72%30.00 "Hg10 mi
8:35 AM68 °FScattered clouds.No wind88%30.00 "Hg10 mi
8:15 AM66 °FSunny.No wind98%30.00 "Hg10 mi
7:55 AM64 °FSunny.No wind100%30.00 "Hg10 mi
7:35 AM63 °FPartly sunny.No wind100%29.99 "Hg10 mi
7:15 AM61 °FPartly sunny.No wind100%29.99 "Hg10 mi
6:55 AM59 °FScattered clouds.No wind100%29.99 "Hg10 mi
6:35 AM58 °FFog.No wind100%29.99 "Hg4 mi
6:15 AM59 °FPassing clouds.No wind100%29.99 "Hg10 mi
5:55 AM60 °FPassing clouds.No wind100%29.99 "Hg10 mi
5:35 AM60 °FPassing clouds.No wind100%29.99 "Hg10 mi
5:15 AM61 °FPassing clouds.No wind100%29.99 "Hg10 mi
4:55 AM61 °FPartly cloudy.No wind100%29.99 "Hg10 mi
4:35 AM61 °FOvercast.No wind100%30.00 "Hg10 mi
4:15 AM62 °FOvercast.No wind100%30.01 "Hg10 mi
3:55 AM61 °FOvercast.No wind100%30.01 "Hg10 mi
3:15 AM60 °FPassing clouds.No wind100%30.01 "Hg10 mi
2:55 AM60 °FPassing clouds.No wind100%30.01 "Hg10 mi
2:35 AM60 °FPassing clouds.No wind100%30.01 "Hg10 mi
2:15 AM60 °FPartly cloudy.No wind100%30.01 "Hg10 mi
1:55 AM60 °FPartly cloudy.No wind100%30.02 "Hg10 mi
1:35 AM59 °FPassing clouds.No wind100%30.02 "Hg10 mi
1:15 AM59 °FPassing clouds.No wind100%30.02 "Hg10 mi
12:55 AM59 °FPassing clouds.No wind100%30.02 "Hg10 mi
12:35 AM60 °FPassing clouds.No wind96%30.02 "Hg10 mi
12:15 AM60 °FPassing clouds.No wind96%30.02 "Hg10 mi
11:55 PM
Fri, Jul 31
60 °FClear.No wind93%30.02 "Hg10 mi
11:15 PM61 °FPassing clouds.No wind84%30.01 "Hg10 mi
10:55 PM64 °FClear.No wind76%30.01 "Hg10 mi
10:15 PM65 °FClear.5 mph72%30.01 "Hg10 mi
9:55 PM65 °FClear.5 mph73%30.01 "Hg10 mi
9:35 PM66 °FSunny.5 mph68%30.00 "Hg10 mi
9:15 PM67 °FSunny.3 mph64%29.99 "Hg10 mi
8:55 PM70 °FScattered clouds.3 mph57%29.99 "Hg10 mi
8:35 PM71 °FScattered clouds.6 mph50%29.99 "Hg10 mi
8:15 PM72 °FScattered clouds.6 mph49%29.99 "Hg10 mi
7:55 PM73 °FScattered clouds.5 mph48%29.99 "Hg10 mi
7:35 PM74 °FSunny.5 mph45%29.99 "Hg10 mi
7:15 PM76 °FSunny.5 mph40%29.99 "Hg10 mi
Weather by CustomWeather, © 2015

See weather overviewHow to use our weather pages